Time,TemperatureF,DewpointF,PressureIn,WindDirection,WindDirectionDegrees,WindSpeedMPH,WindSpeedGustMPH,Humidity,HourlyPrecipIn,Conditions,Clouds,dailyrainin,SoftwareType,DateUTC
2013-10-24 00:00:00,49.0,40.0,29.70,SE,135,3.0,3.0,71,0.00,,,0.00,TxWx,2013-10-24 04:00:00,
2013-10-24 00:15:00,49.0,40.0,29.70,ENE,67,5.0,5.0,70,0.00,,,0.00,TxWx,2013-10-24 04:15:00,
2013-10-24 00:20:00,49.0,40.0,29.70,East,90,3.0,3.0,71,0.00,,,0.00,TxWx,2013-10-24 04:20:00,
2013-10-24 00:25:00,48.0,39.0,29.70,ESE,112,3.0,4.0,71,0.00,,,0.00,TxWx,2013-10-24 04:25:00,
2013-10-24 00:31:00,48.0,39.0,29.70,East,90,1.0,2.0,71,0.00,,,0.00,TxWx,2013-10-24 04:31:00,
2013-10-24 00:36:00,48.0,39.0,29.70,SE,135,3.0,3.0,71,0.00,,,0.00,TxWx,2013-10-24 04:36:00,
2013-10-24 00:41:00,48.0,39.0,29.71,East,90,4.0,5.0,71,0.00,,,0.00,TxWx,2013-10-24 04:41:00,
2013-10-24 00:46:00,48.0,39.0,29.70,East,90,5.0,6.0,71,0.00,,,0.00,TxWx,2013-10-24 04:46:00,
2013-10-24 00:51:00,48.0,39.0,29.71,NE,45,4.0,4.0,71,0.00,,,0.00,TxWx,2013-10-24 04:51:00,
2013-10-24 00:56:00,48.0,39.0,29.71,ENE,67,6.0,6.0,71,0.00,,,0.00,TxWx,2013-10-24 04:56:00,
2013-10-24 01:01:00,48.0,39.0,29.71,ENE,67,4.0,5.0,71,0.00,,,0.00,TxWx,2013-10-24 05:01:00,
2013-10-24 01:06:00,48.0,39.0,29.71,ENE,67,3.0,3.0,71,0.00,,,0.00,TxWx,2013-10-24 05:06:00,
2013-10-24 01:12:00,48.0,39.0,29.71,NE,45,3.0,5.0,71,0.00,,,0.00,TxWx,2013-10-24 05:12:00,
2013-10-24 01:17:00,47.0,38.0,29.71,ENE,67,3.0,5.0,71,0.00,,,0.00,TxWx,2013-10-24 05:17:00,
2013-10-24 01:22:00,47.0,38.0,29.71,ENE,67,5.0,6.0,70,0.00,,,0.00,TxWx,2013-10-24 05:22:00,
2013-10-24 01:27:00,47.0,38.0,29.71,ESE,112,3.0,4.0,70,0.00,,,0.00,TxWx,2013-10-24 05:27:00,
2013-10-24 01:32:00,47.0,38.0,29.71,ESE,112,1.0,1.0,70,0.00,,,0.00,TxWx,2013-10-24 05:32:00,
2013-10-24 01:37:00,47.0,38.0,29.71,NE,45,1.0,3.0,70,0.00,,,0.00,TxWx,2013-10-24 05:37:00,
2013-10-24 01:42:00,47.0,38.0,29.71,ESE,112,1.0,1.0,70,0.00,,,0.00,TxWx,2013-10-24 05:42:00,
2013-10-24 01:48:00,47.0,38.0,29.71,WNW,292,1.0,2.0,70,0.00,,,0.00,TxWx,2013-10-24 05:48:00,
2013-10-24 01:53:00,46.0,37.0,29.71,NNE,22,2.0,3.0,70,0.00,,,0.00,TxWx,2013-10-24 05:53:00,
2013-10-24 01:58:00,45.0,36.0,29.71,NNE,22,2.0,3.0,70,0.00,,,0.00,TxWx,2013-10-24 05:58:00,
2013-10-24 02:03:00,45.0,36.0,29.72,NNW,337,3.0,5.0,71,0.00,,,0.00,TxWx,2013-10-24 06:03:00,
2013-10-24 02:08:00,45.0,36.0,29.72,East,90,2.0,3.0,71,0.00,,,0.00,TxWx,2013-10-24 06:08:00,
2013-10-24 02:13:00,45.0,37.0,29.72,East,90,1.0,1.0,73,0.00,,,0.00,TxWx,2013-10-24 06:13:00,
2013-10-24 02:18:00,45.0,37.0,29.72,NNE,22,1.0,1.0,73,0.00,,,0.00,TxWx,2013-10-24 06:18:00,
2013-10-24 02:23:00,45.0,37.0,29.72,NNE,22,2.0,2.0,73,0.00,,,0.00,TxWx,2013-10-24 06:23:00,
2013-10-24 02:29:00,45.0,37.0,29.72,NW,315,0.0,1.0,73,0.00,,,0.00,TxWx,2013-10-24 06:29:00,
2013-10-24 02:34:00,44.0,36.0,29.73,WSW,247,1.0,2.0,73,0.00,,,0.00,TxWx,2013-10-24 06:34:00,
2013-10-24 02:39:00,44.0,36.0,29.73,North,0,2.0,2.0,73,0.00,,,0.00,TxWx,2013-10-24 06:39:00,
2013-10-24 02:44:00,43.0,35.0,29.72,East,90,1.0,1.0,73,0.00,,,0.00,TxWx,2013-10-24 06:44:00,
2013-10-24 02:49:00,43.0,35.0,29.72,SE,135,2.0,2.0,75,0.00,,,0.00,TxWx,2013-10-24 06:49:00,
2013-10-24 02:54:00,42.0,35.0,29.72,WSW,247,1.0,1.0,76,0.00,,,0.00,TxWx,2013-10-24 06:54:00,
2013-10-24 02:59:00,43.0,36.0,29.73,NW,315,1.0,1.0,77,0.00,,,0.00,TxWx,2013-10-24 06:59:00,
2013-10-24 03:05:00,43.0,36.0,29.73,WNW,292,1.0,1.0,77,0.00,,,0.00,TxWx,2013-10-24 07:05:00,
2013-10-24 03:10:00,43.0,36.0,29.73,East,90,1.0,2.0,77,0.00,,,0.00,TxWx,2013-10-24 07:10:00,
2013-10-24 03:15:00,43.0,36.0,29.73,ENE,67,1.0,1.0,77,0.00,,,0.00,TxWx,2013-10-24 07:15:00,
2013-10-24 03:20:00,42.0,35.0,29.73,SE,135,2.0,3.0,77,0.00,,,0.00,TxWx,2013-10-24 07:20:00,
2013-10-24 03:25:00,43.0,36.0,29.73,NE,45,2.0,3.0,78,0.00,,,0.00,TxWx,2013-10-24 07:25:00,
2013-10-24 03:30:00,42.0,35.0,29.74,NNE,22,3.0,3.0,78,0.00,,,0.00,TxWx,2013-10-24 07:30:00,
2013-10-24 03:35:00,42.0,36.0,29.74,ESE,112,2.0,3.0,78,0.00,,,0.00,TxWx,2013-10-24 07:35:00,
2013-10-24 03:40:00,43.0,37.0,29.74,South,180,3.0,5.0,79,0.00,,,0.00,TxWx,2013-10-24 07:40:00,
2013-10-24 03:45:00,43.0,37.0,29.74,ESE,112,1.0,2.0,79,0.00,,,0.00,TxWx,2013-10-24 07:45:00,
2013-10-24 03:51:00,43.0,37.0,29.74,West,270,1.0,1.0,78,0.00,,,0.00,TxWx,2013-10-24 07:51:00,
2013-10-24 03:56:00,43.0,37.0,29.74,SSW,202,0.0,1.0,78,0.00,,,0.00,TxWx,2013-10-24 07:56:00,
2013-10-24 04:01:00,42.0,36.0,29.74,West,270,1.0,1.0,78,0.00,,,0.00,TxWx,2013-10-24 08:01:00,
2013-10-24 04:06:00,42.0,36.0,29.74,WNW,292,1.0,1.0,78,0.00,,,0.00,TxWx,2013-10-24 08:06:00,
2013-10-24 04:11:00,42.0,36.0,29.74,WNW,292,1.0,1.0,78,0.00,,,0.00,TxWx,2013-10-24 08:11:00,
2013-10-24 04:16:00,42.0,36.0,29.74,NNE,22,1.0,1.0,78,0.00,,,0.00,TxWx,2013-10-24 08:16:00,
2013-10-24 04:21:00,42.0,36.0,29.74,NNE,22,2.0,3.0,78,0.00,,,0.00,TxWx,2013-10-24 08:21:00,
2013-10-24 04:26:00,41.0,35.0,29.75,SW,225,1.0,1.0,78,0.00,,,0.00,TxWx,2013-10-24 08:26:00,
2013-10-24 04:31:00,41.0,35.0,29.75,NNE,22,1.0,1.0,79,0.00,,,0.00,TxWx,2013-10-24 08:31:00,
2013-10-24 04:37:00,40.0,34.0,29.75,WNW,292,1.0,2.0,79,0.00,,,0.00,TxWx,2013-10-24 08:37:00,
2013-10-24 04:42:00,40.0,34.0,29.75,NNW,337,1.0,1.0,79,0.00,,,0.00,TxWx,2013-10-24 08:42:00,
2013-10-24 04:47:00,39.0,33.0,29.75,SE,135,1.0,1.0,79,0.00,,,0.00,TxWx,2013-10-24 08:47:00,
2013-10-24 04:52:00,39.0,33.0,29.75,SSE,157,0.0,1.0,79,0.00,,,0.00,TxWx,2013-10-24 08:52:00,
2013-10-24 04:57:00,39.0,33.0,29.75,SSE,157,1.0,1.0,80,0.00,,,0.00,TxWx,2013-10-24 08:57:00,
2013-10-24 05:02:00,39.0,34.0,29.76,South,180,0.0,1.0,81,0.00,,,0.00,TxWx,2013-10-24 09:02:00,
2013-10-24 05:03:00,56.0,31.0,29.78,North,0,8.0,8.0,40,0.00,,,0.00,TxWx,2013-10-24 09:03:00,
2013-10-24 05:04:00,56.0,30.0,29.78,North,0,9.0,9.0,39,0.00,,,0.00,TxWx,2013-10-24 09:04:00,
2013-10-24 05:05:00,56.0,30.0,29.78,North,0,6.0,8.0,39,0.00,,,0.00,TxWx,2013-10-24 09:05:00,
2013-10-24 05:06:00,56.0,30.0,29.77,ENE,67,6.0,8.0,39,0.00,,,0.00,TxWx,2013-10-24 09:06:00,
2013-10-24 05:07:00,38.0,33.0,29.76,WNW,292,1.0,1.0,81,0.00,,,0.00,TxWx,2013-10-24 09:07:00,
2013-10-24 05:08:00,56.0,31.0,29.78,North,0,9.0,12.0,40,0.00,,,0.00,TxWx,2013-10-24 09:08:00,
2013-10-24 05:10:00,56.0,30.0,29.78,ENE,67,5.0,7.0,39,0.00,,,0.00,TxWx,2013-10-24 09:10:00,
2013-10-24 05:12:00,56.0,31.0,29.78,NE,45,5.0,5.0,40,0.00,,,0.00,TxWx,2013-10-24 09:12:00,
2013-10-24 05:13:00,38.0,33.0,29.76,West,270,1.0,1.0,81,0.00,,,0.00,TxWx,2013-10-24 09:13:00,
2013-10-24 05:14:00,56.0,31.0,29.78,NNE,22,8.0,11.0,40,0.00,,,0.00,TxWx,2013-10-24 09:14:00,
2013-10-24 05:15:00,56.0,31.0,29.77,WNW,292,8.0,9.0,40,0.00,,,0.00,TxWx,2013-10-24 09:15:00,
2013-10-24 05:17:00,56.0,31.0,29.77,NE,45,8.0,11.0,40,0.00,,,0.00,TxWx,2013-10-24 09:17:00,
2013-10-24 05:18:00,38.0,33.0,29.76,NE,45,0.0,1.0,82,0.00,,,0.00,TxWx,2013-10-24 09:18:00,
2013-10-24 05:19:00,57.0,31.0,29.78,NE,45,9.0,9.0,39,0.00,,,0.00,TxWx,2013-10-24 09:19:00,
2013-10-24 05:20:00,57.0,32.0,29.78,NE,45,8.0,8.0,39,0.00,,,0.00,TxWx,2013-10-24 09:20:00,
2013-10-24 05:21:00,57.0,32.0,29.78,NE,45,9.0,9.0,39,0.00,,,0.00,TxWx,2013-10-24 09:21:00,
2013-10-24 05:23:00,38.0,33.0,29.76,South,180,1.0,1.0,82,0.00,,,0.00,TxWx,2013-10-24 09:23:00,
2013-10-24 05:28:00,37.0,31.0,29.76,West,270,1.0,1.0,82,0.00,,,0.00,TxWx,2013-10-24 09:28:00,
2013-10-24 05:33:00,38.0,33.0,29.76,NW,315,1.0,1.0,83,0.00,,,0.00,TxWx,2013-10-24 09:33:00,
2013-10-24 05:38:00,37.0,32.0,29.77,North,0,0.0,0.0,83,0.00,,,0.00,TxWx,2013-10-24 09:38:00,
2013-10-24 05:43:00,37.0,32.0,29.77,WNW,292,1.0,1.0,83,0.00,,,0.00,TxWx,2013-10-24 09:43:00,
2013-10-24 05:48:00,37.0,30.0,29.77,WSW,247,1.0,1.0,83,0.00,,,0.00,TxWx,2013-10-24 09:48:00,
2013-10-24 05:54:00,36.0,30.0,29.77,NNW,337,1.0,2.0,83,0.00,,,0.00,TxWx,2013-10-24 09:54:00,
2013-10-24 05:59:00,36.0,30.0,29.77,WSW,247,1.0,1.0,84,0.00,,,0.00,TxWx,2013-10-24 09:59:00,
2013-10-24 06:04:00,36.0,30.0,29.77,WNW,292,1.0,1.0,84,0.00,,,0.00,TxWx,2013-10-24 10:04:00,
2013-10-24 06:09:00,36.0,30.0,29.77,ENE,67,1.0,1.0,84,0.00,,,0.00,TxWx,2013-10-24 10:09:00,
2013-10-24 06:12:00,55.0,28.0,29.78,NNE,22,8.0,10.0,37,0.00,,,0.00,TxWx,2013-10-24 10:12:00,
2013-10-24 06:13:00,55.0,28.0,29.78,NNE,22,10.0,11.0,37,0.00,,,0.00,TxWx,2013-10-24 10:13:00,
2013-10-24 06:14:00,36.0,31.0,29.77,West,270,1.0,1.0,84,0.00,,,0.00,TxWx,2013-10-24 10:14:00,
2013-10-24 06:17:00,55.0,29.0,29.78,East,90,6.0,6.0,38,0.00,,,0.00,TxWx,2013-10-24 10:17:00,
2013-10-24 06:18:00,55.0,28.0,29.78,ESE,112,7.0,8.0,38,0.00,,,0.00,TxWx,2013-10-24 10:18:00,
2013-10-24 06:19:00,36.0,31.0,29.78,NW,315,0.0,0.0,84,0.00,,,0.00,TxWx,2013-10-24 10:19:00,
2013-10-24 06:22:00,55.0,29.0,29.78,East,90,3.0,3.0,38,0.00,,,0.00,TxWx,2013-10-24 10:22:00,
2013-10-24 06:23:00,55.0,28.0,29.78,ENE,67,6.0,6.0,37,0.00,,,0.00,TxWx,2013-10-24 10:23:00,
2013-10-24 06:24:00,36.0,31.0,29.78,WNW,292,0.0,1.0,85,0.00,,,0.00,TxWx,2013-10-24 10:24:00,
2013-10-24 06:26:00,55.0,28.0,29.78,NE,45,5.0,5.0,38,0.00,,,0.00,TxWx,2013-10-24 10:26:00,
2013-10-24 06:27:00,55.0,28.0,29.78,ENE,67,5.0,6.0,38,0.00,,,0.00,TxWx,2013-10-24 10:27:00,
2013-10-24 06:28:00,55.0,28.0,29.78,ENE,67,6.0,6.0,38,0.00,,,0.00,TxWx,2013-10-24 10:28:00,
2013-10-24 06:29:00,36.0,31.0,29.78,NNW,337,1.0,1.0,85,0.00,,,0.00,TxWx,2013-10-24 10:29:00,
2013-10-24 06:30:00,55.0,28.0,29.78,SSE,157,5.0,6.0,38,0.00,,,0.00,TxWx,2013-10-24 10:30:00,
2013-10-24 06:34:00,36.0,31.0,29.78,NNW,337,1.0,2.0,85,0.00,,,0.00,TxWx,2013-10-24 10:34:00,
2013-10-24 06:39:00,36.0,31.0,29.78,NNE,22,1.0,1.0,85,0.00,,,0.00,TxWx,2013-10-24 10:39:00,
2013-10-24 06:44:00,37.0,33.0,29.78,NW,315,2.0,3.0,86,0.00,,,0.00,TxWx,2013-10-24 10:44:00,
2013-10-24 06:50:00,37.0,33.0,29.79,North,0,2.0,3.0,86,0.00,,,0.00,TxWx,2013-10-24 10:50:00,
2013-10-24 06:55:00,37.0,33.0,29.79,NNE,22,1.0,1.0,86,0.00,,,0.00,TxWx,2013-10-24 10:55:00,
2013-10-24 07:00:00,38.0,34.0,29.79,NNW,337,1.0,2.0,86,0.00,,,0.00,TxWx,2013-10-24 11:00:00,
2013-10-24 07:05:00,38.0,34.0,29.79,NNW,337,3.0,4.0,86,0.00,,,0.00,TxWx,2013-10-24 11:05:00,
2013-10-24 07:10:00,38.0,34.0,29.79,North,0,1.0,1.0,86,0.00,,,0.00,TxWx,2013-10-24 11:10:00,
2013-10-24 07:15:00,37.0,33.0,29.79,NW,315,1.0,2.0,86,0.00,,,0.00,TxWx,2013-10-24 11:15:00,
2013-10-24 07:20:00,37.0,33.0,29.79,WSW,247,1.0,1.0,86,0.00,,,0.00,TxWx,2013-10-24 11:20:00,
2013-10-24 07:25:00,37.0,33.0,29.79,South,180,2.0,3.0,87,0.00,,,0.00,TxWx,2013-10-24 11:25:00,
2013-10-24 07:30:00,37.0,33.0,29.79,South,180,2.0,3.0,86,0.00,,,0.00,TxWx,2013-10-24 11:30:00,
2013-10-24 07:36:00,37.0,33.0,29.80,South,180,2.0,2.0,87,0.00,,,0.00,TxWx,2013-10-24 11:36:00,
2013-10-24 07:41:00,37.0,33.0,29.80,WNW,292,1.0,1.0,87,0.00,,,0.00,TxWx,2013-10-24 11:41:00,
2013-10-24 07:46:00,37.0,33.0,29.80,SW,225,4.0,4.0,87,0.00,,,0.00,TxWx,2013-10-24 11:46:00,
2013-10-24 07:51:00,37.0,33.0,29.80,WNW,292,1.0,2.0,87,0.00,,,0.00,TxWx,2013-10-24 11:51:00,
2013-10-24 07:56:00,37.0,33.0,29.80,NW,315,3.0,3.0,87,0.00,,,0.00,TxWx,2013-10-24 11:56:00,
2013-10-24 08:01:00,37.0,33.0,29.80,NNE,22,2.0,2.0,87,0.00,,,0.00,TxWx,2013-10-24 12:01:00,
2013-10-24 08:06:00,36.0,32.0,29.80,NNE,22,3.0,3.0,87,0.00,,,0.00,TxWx,2013-10-24 12:06:00,
2013-10-24 08:11:00,37.0,33.0,29.81,WNW,292,2.0,3.0,87,0.00,,,0.00,TxWx,2013-10-24 12:11:00,
2013-10-24 08:12:00,56.0,29.0,29.80,NNW,337,5.0,6.0,37,0.00,,,0.00,TxWx,2013-10-24 12:12:00,
2013-10-24 08:14:00,56.0,29.0,29.80,ENE,67,2.0,3.0,37,0.00,,,0.00,TxWx,2013-10-24 12:14:00,
2013-10-24 08:15:00,56.0,29.0,29.80,East,90,10.0,10.0,37,0.00,,,0.00,TxWx,2013-10-24 12:15:00,
2013-10-24 08:16:00,38.0,35.0,29.81,NNW,337,5.0,6.0,88,0.00,,,0.00,TxWx,2013-10-24 12:16:00,
2013-10-24 08:17:00,55.0,28.0,29.80,NNE,22,9.0,11.0,37,0.00,,,0.00,TxWx,2013-10-24 12:17:00,
2013-10-24 08:20:00,55.0,28.0,29.80,NE,45,3.0,4.0,37,0.00,,,0.00,TxWx,2013-10-24 12:20:00,
2013-10-24 08:21:00,40.0,37.0,29.81,NW,315,5.0,5.0,88,0.00,,,0.00,TxWx,2013-10-24 12:21:00,
2013-10-24 08:22:00,56.0,29.0,29.80,North,0,4.0,5.0,37,0.00,,,0.00,TxWx,2013-10-24 12:22:00,
2013-10-24 08:23:00,56.0,29.0,29.80,NNE,22,3.0,8.0,37,0.00,,,0.00,TxWx,2013-10-24 12:23:00,
2013-10-24 08:24:00,56.0,29.0,29.80,NE,45,5.0,6.0,37,0.00,,,0.00,TxWx,2013-10-24 12:24:00,
2013-10-24 08:26:00,41.0,38.0,29.81,WNW,292,6.0,6.0,88,0.00,,,0.00,TxWx,2013-10-24 12:26:00,
2013-10-24 08:28:00,56.0,29.0,29.80,NE,45,4.0,8.0,37,0.00,,,0.00,TxWx,2013-10-24 12:28:00,
2013-10-24 08:29:00,56.0,29.0,29.81,ENE,67,10.0,10.0,37,0.00,,,0.00,TxWx,2013-10-24 12:29:00,
2013-10-24 08:30:00,55.0,28.0,29.81,ENE,67,4.0,4.0,37,0.00,,,0.00,TxWx,2013-10-24 12:30:00,
2013-10-24 08:31:00,42.0,39.0,29.81,NW,315,4.0,5.0,88,0.00,,,0.00,TxWx,2013-10-24 12:31:00,
2013-10-24 08:32:00,55.0,28.0,29.81,NNE,22,4.0,6.0,37,0.00,,,0.00,TxWx,2013-10-24 12:32:00,
2013-10-24 08:33:00,55.0,28.0,29.81,ENE,67,4.0,4.0,37,0.00,,,0.00,TxWx,2013-10-24 12:33:00,
2013-10-24 08:34:00,55.0,28.0,29.81,NNE,22,8.0,9.0,37,0.00,,,0.00,TxWx,2013-10-24 12:34:00,
2013-10-24 08:36:00,42.0,38.0,29.81,NNE,22,3.0,4.0,87,0.00,,,0.00,TxWx,2013-10-24 12:36:00,
2013-10-24 08:37:00,55.0,28.0,29.81,North,0,6.0,6.0,37,0.00,,,0.00,TxWx,2013-10-24 12:37:00,
2013-10-24 08:38:00,55.0,28.0,29.81,NNW,337,4.0,7.0,38,0.00,,,0.00,TxWx,2013-10-24 12:38:00,
2013-10-24 08:41:00,55.0,28.0,29.81,NNW,337,3.0,4.0,38,0.00,,,0.00,TxWx,2013-10-24 12:41:00,
2013-10-24 08:42:00,42.0,39.0,29.81,NW,315,5.0,6.0,86,0.00,,,0.00,TxWx,2013-10-24 12:42:00,
2013-10-24 08:47:00,43.0,39.0,29.81,NW,315,5.0,6.0,85,0.00,,,0.00,TxWx,2013-10-24 12:47:00,
2013-10-24 08:52:00,44.0,39.0,29.81,WNW,292,4.0,5.0,83,0.00,,,0.00,TxWx,2013-10-24 12:52:00,
2013-10-24 08:55:00,55.0,29.0,29.81,NE,45,2.0,3.0,38,0.00,,,0.00,TxWx,2013-10-24 12:55:00,
2013-10-24 08:57:00,44.0,39.0,29.81,NW,315,5.0,5.0,82,0.00,,,0.00,TxWx,2013-10-24 12:57:00,
2013-10-24 08:58:00,55.0,29.0,29.82,NE,45,3.0,4.0,39,0.00,,,0.00,TxWx,2013-10-24 12:58:00,
2013-10-24 08:59:00,55.0,29.0,29.82,NNE,22,3.0,4.0,39,0.00,,,0.00,TxWx,2013-10-24 12:59:00,
2013-10-24 09:00:00,55.0,29.0,29.82,NNE,22,7.0,8.0,39,0.00,,,0.00,TxWx,2013-10-24 13:00:00,
2013-10-24 09:01:00,55.0,29.0,29.82,NE,45,5.0,5.0,39,0.00,,,0.00,TxWx,2013-10-24 13:01:00,
2013-10-24 09:02:00,45.0,39.0,29.81,NW,315,3.0,5.0,80,0.00,,,0.00,TxWx,2013-10-24 13:02:00,
2013-10-24 09:04:00,55.0,29.0,29.82,NNE,22,8.0,11.0,39,0.00,,,0.00,TxWx,2013-10-24 13:04:00,
2013-10-24 09:05:00,54.0,29.0,29.82,NNE,22,7.0,7.0,39,0.00,,,0.00,TxWx,2013-10-24 13:05:00,
2013-10-24 09:06:00,54.0,29.0,29.82,NE,45,6.0,7.0,39,0.00,,,0.00,TxWx,2013-10-24 13:06:00,
2013-10-24 09:07:00,46.0,39.0,29.81,NNW,337,3.0,4.0,78,0.00,,,0.00,TxWx,2013-10-24 13:07:00,
2013-10-24 09:08:00,54.0,29.0,29.82,NNE,22,6.0,8.0,39,0.00,,,0.00,TxWx,2013-10-24 13:08:00,
2013-10-24 09:09:00,54.0,29.0,29.82,NNE,22,10.0,10.0,39,0.00,,,0.00,TxWx,2013-10-24 13:09:00,
2013-10-24 09:11:00,54.0,29.0,29.82,NE,45,5.0,5.0,39,0.00,,,0.00,TxWx,2013-10-24 13:11:00,
2013-10-24 09:12:00,46.0,38.0,29.81,NW,315,5.0,6.0,75,0.00,,,0.00,TxWx,2013-10-24 13:12:00,
2013-10-24 09:16:00,54.0,29.0,29.83,NW,315,5.0,6.0,39,0.00,,,0.00,TxWx,2013-10-24 13:16:00,
2013-10-24 09:17:00,46.0,38.0,29.81,NNW,337,5.0,5.0,73,0.00,,,0.00,TxWx,2013-10-24 13:17:00,
2013-10-24 09:18:00,54.0,29.0,29.83,NE,45,6.0,6.0,39,0.00,,,0.00,TxWx,2013-10-24 13:18:00,
2013-10-24 09:22:00,47.0,38.0,29.81,NW,315,6.0,8.0,71,0.00,,,0.00,TxWx,2013-10-24 13:22:00,
2013-10-24 09:27:00,47.0,37.0,29.81,NW,315,4.0,4.0,69,0.00,,,0.00,TxWx,2013-10-24 13:27:00,
2013-10-24 09:32:00,47.0,37.0,29.81,NNW,337,5.0,7.0,68,0.00,,,0.00,TxWx,2013-10-24 13:32:00,
2013-10-24 09:37:00,47.0,36.0,29.81,WNW,292,9.0,10.0,67,0.00,,,0.00,TxWx,2013-10-24 13:37:00,
2013-10-24 09:42:00,47.0,36.0,29.81,West,270,5.0,7.0,66,0.00,,,0.00,TxWx,2013-10-24 13:42:00,
2013-10-24 09:47:00,47.0,36.0,29.81,WSW,247,5.0,6.0,66,0.00,,,0.00,TxWx,2013-10-24 13:47:00,
2013-10-24 09:52:00,48.0,37.0,29.81,West,270,6.0,6.0,65,0.00,,,0.00,TxWx,2013-10-24 13:52:00,
2013-10-24 09:58:00,48.0,37.0,29.82,North,0,7.0,7.0,65,0.00,,,0.00,TxWx,2013-10-24 13:58:00,
2013-10-24 10:03:00,49.0,38.0,29.82,North,0,5.0,7.0,65,0.00,,,0.00,TxWx,2013-10-24 14:03:00,
2013-10-24 10:08:00,49.0,37.0,29.82,WNW,292,5.0,5.0,64,0.00,,,0.00,TxWx,2013-10-24 14:08:00,
2013-10-24 10:13:00,49.0,37.0,29.82,NW,315,5.0,6.0,64,0.00,,,0.00,TxWx,2013-10-24 14:13:00,
2013-10-24 10:16:00,53.0,29.0,29.85,North,0,2.0,3.0,41,0.00,,,0.00,TxWx,2013-10-24 14:16:00,
2013-10-24 10:18:00,49.0,37.0,29.82,WNW,292,6.0,8.0,63,0.00,,,0.00,TxWx,2013-10-24 14:18:00,
2013-10-24 10:20:00,53.0,29.0,29.85,NNE,22,2.0,3.0,42,0.00,,,0.00,TxWx,2013-10-24 14:20:00,
2013-10-24 10:21:00,53.0,29.0,29.85,North,0,4.0,4.0,42,0.00,,,0.00,TxWx,2013-10-24 14:21:00,
2013-10-24 10:22:00,53.0,29.0,29.85,NNE,22,3.0,3.0,42,0.00,,,0.00,TxWx,2013-10-24 14:22:00,
2013-10-24 10:23:00,49.0,37.0,29.82,NW,315,3.0,3.0,63,0.00,,,0.00,TxWx,2013-10-24 14:23:00,
2013-10-24 10:24:00,53.0,29.0,29.85,NNE,22,2.0,2.0,42,0.00,,,0.00,TxWx,2013-10-24 14:24:00,
2013-10-24 10:25:00,53.0,29.0,29.85,North,0,1.0,1.0,42,0.00,,,0.00,TxWx,2013-10-24 14:25:00,
2013-10-24 10:26:00,53.0,29.0,29.85,North,0,1.0,1.0,42,0.00,,,0.00,TxWx,2013-10-24 14:26:00,
2013-10-24 10:27:00,53.0,29.0,29.85,NNE,22,1.0,1.0,42,0.00,,,0.00,TxWx,2013-10-24 14:27:00,
2013-10-24 10:28:00,50.0,38.0,29.82,NW,315,5.0,5.0,63,0.00,,,0.00,TxWx,2013-10-24 14:28:00,
2013-10-24 10:29:00,53.0,29.0,29.85,ENE,67,3.0,3.0,42,0.00,,,0.00,TxWx,2013-10-24 14:29:00,
2013-10-24 10:31:00,53.0,29.0,29.85,North,0,2.0,2.0,42,0.00,,,0.00,TxWx,2013-10-24 14:31:00,
2013-10-24 10:32:00,53.0,29.0,29.85,NNW,337,2.0,2.0,42,0.00,,,0.00,TxWx,2013-10-24 14:32:00,
2013-10-24 10:33:00,50.0,37.0,29.82,WNW,292,5.0,6.0,61,0.00,,,0.00,TxWx,2013-10-24 14:33:00,
2013-10-24 10:38:00,50.0,36.0,29.82,WNW,292,9.0,9.0,59,0.00,,,0.00,TxWx,2013-10-24 14:38:00,
2013-10-24 10:43:00,51.0,36.0,29.82,WNW,292,7.0,7.0,57,0.00,,,0.00,TxWx,2013-10-24 14:43:00,
2013-10-24 10:48:00,51.0,35.0,29.82,North,0,8.0,9.0,54,0.00,,,0.00,TxWx,2013-10-24 14:48:00,
2013-10-24 10:53:00,51.0,33.0,29.81,ENE,67,6.0,6.0,51,0.00,,,0.00,TxWx,2013-10-24 14:53:00,
2013-10-24 10:58:00,51.0,31.0,29.82,NNE,22,14.0,16.0,48,0.00,,,0.00,TxWx,2013-10-24 14:58:00,
2013-10-24 11:03:00,52.0,31.0,29.82,NNE,22,13.0,15.0,46,0.00,,,0.00,TxWx,2013-10-24 15:03:00,
2013-10-24 11:08:00,51.0,30.0,29.82,North,0,3.0,3.0,47,0.00,,,0.00,TxWx,2013-10-24 15:08:00,
2013-10-24 11:13:00,51.0,30.0,29.81,NE,45,6.0,6.0,47,0.00,,,0.00,TxWx,2013-10-24 15:13:00,
2013-10-24 11:18:00,52.0,31.0,29.81,NE,45,7.0,7.0,46,0.00,,,0.00,TxWx,2013-10-24 15:18:00,
2013-10-24 11:23:00,52.0,31.0,29.81,NNE,22,6.0,10.0,46,0.00,,,0.00,TxWx,2013-10-24 15:23:00,
2013-10-24 11:28:00,53.0,30.0,29.81,NNE,22,8.0,12.0,44,0.00,,,0.00,TxWx,2013-10-24 15:28:00,
2013-10-24 11:33:00,53.0,31.0,29.81,NNW,337,6.0,6.0,44,0.00,,,0.00,TxWx,2013-10-24 15:33:00,
2013-10-24 11:38:00,52.0,29.0,29.81,NW,315,11.0,11.0,43,0.00,,,0.00,TxWx,2013-10-24 15:38:00,
2013-10-24 11:43:00,52.0,29.0,29.80,NNE,22,8.0,8.0,42,0.00,,,0.00,TxWx,2013-10-24 15:43:00,
2013-10-24 11:49:00,53.0,30.0,29.81,North,0,8.0,9.0,43,0.00,,,0.00,TxWx,2013-10-24 15:49:00,
2013-10-24 11:54:00,53.0,29.0,29.81,NW,315,5.0,6.0,42,0.00,,,0.00,TxWx,2013-10-24 15:54:00,
2013-10-24 11:59:00,53.0,29.0,29.80,East,90,8.0,8.0,42,0.00,,,0.00,TxWx,2013-10-24 15:59:00,
2013-10-24 12:04:00,53.0,29.0,29.80,NE,45,3.0,3.0,41,0.00,,,0.00,TxWx,2013-10-24 16:04:00,
2013-10-24 12:09:00,54.0,29.0,29.80,NNE,22,9.0,11.0,41,0.00,,,0.00,TxWx,2013-10-24 16:09:00,
2013-10-24 12:13:00,54.0,29.0,29.80,ENE,67,8.0,9.0,40,0.00,,,0.00,TxWx,2013-10-24 16:13:00,
2013-10-24 12:18:00,54.0,30.0,29.80,WNW,292,2.0,3.0,41,0.00,,,0.00,TxWx,2013-10-24 16:18:00,
2013-10-24 12:23:00,54.0,30.0,29.79,North,0,5.0,9.0,41,0.00,,,0.00,TxWx,2013-10-24 16:23:00,
2013-10-24 12:28:00,54.0,29.0,29.79,ESE,112,6.0,6.0,41,0.00,,,0.00,TxWx,2013-10-24 16:28:00,
2013-10-24 12:33:00,55.0,31.0,29.79,North,0,10.0,10.0,41,0.00,,,0.00,TxWx,2013-10-24 16:33:00,
2013-10-24 12:38:00,55.0,29.0,29.79,NNE,22,12.0,14.0,39,0.00,,,0.00,TxWx,2013-10-24 16:38:00,
2013-10-24 12:43:00,55.0,29.0,29.79,NNE,22,6.0,12.0,39,0.00,,,0.00,TxWx,2013-10-24 16:43:00,
2013-10-24 12:49:00,54.0,28.0,29.79,NNE,22,11.0,13.0,38,0.00,,,0.00,TxWx,2013-10-24 16:49:00,
2013-10-24 12:54:00,54.0,28.0,29.78,NNE,22,6.0,11.0,38,0.00,,,0.00,TxWx,2013-10-24 16:54:00,
2013-10-24 12:59:00,55.0,29.0,29.78,NNW,337,10.0,10.0,39,0.00,,,0.00,TxWx,2013-10-24 16:59:00,
2013-10-24 13:04:00,55.0,29.0,29.78,NNE,22,10.0,11.0,38,0.00,,,0.00,TxWx,2013-10-24 17:04:00,
2013-10-24 13:09:00,55.0,29.0,29.78,NE,45,7.0,10.0,39,0.00,,,0.00,TxWx,2013-10-24 17:09:00,
2013-10-24 13:14:00,55.0,29.0,29.78,NW,315,8.0,13.0,39,0.00,,,0.00,TxWx,2013-10-24 17:14:00,
2013-10-24 13:19:00,55.0,29.0,29.78,NNE,22,7.0,8.0,39,0.00,,,0.00,TxWx,2013-10-24 17:19:00,
2013-10-24 13:24:00,55.0,30.0,29.78,NNW,337,5.0,5.0,40,0.00,,,0.00,TxWx,2013-10-24 17:24:00,
2013-10-24 13:29:00,55.0,30.0,29.78,NNE,22,4.0,8.0,40,0.00,,,0.00,TxWx,2013-10-24 17:29:00,
2013-10-24 13:34:00,55.0,30.0,29.78,NNE,22,10.0,11.0,40,0.00,,,0.00,TxWx,2013-10-24 17:34:00,
2013-10-24 13:39:00,56.0,31.0,29.78,NE,45,8.0,11.0,40,0.00,,,0.00,TxWx,2013-10-24 17:39:00,
2013-10-24 13:44:00,56.0,31.0,29.78,North,0,10.0,11.0,40,0.00,,,0.00,TxWx,2013-10-24 17:44:00,
2013-10-24 13:49:00,56.0,31.0,29.78,NNE,22,6.0,6.0,40,0.00,,,0.00,TxWx,2013-10-24 17:49:00,
2013-10-24 13:54:00,56.0,31.0,29.78,NNE,22,11.0,11.0,40,0.00,,,0.00,TxWx,2013-10-24 17:54:00,
2013-10-24 13:59:00,56.0,31.0,29.78,NW,315,8.0,11.0,40,0.00,,,0.00,TxWx,2013-10-24 17:59:00,
2013-10-24 14:05:00,56.0,31.0,29.78,NNE,22,8.0,11.0,40,0.00,,,0.00,TxWx,2013-10-24 18:05:00,
2013-10-24 14:10:00,56.0,30.0,29.78,ENE,67,8.0,11.0,39,0.00,,,0.00,TxWx,2013-10-24 18:10:00,
2013-10-24 14:15:00,56.0,31.0,29.77,NW,315,5.0,6.0,40,0.00,,,0.00,TxWx,2013-10-24 18:15:00,
2013-10-24 14:20:00,57.0,32.0,29.78,NNE,22,6.0,6.0,39,0.00,,,0.00,TxWx,2013-10-24 18:20:00,
2013-10-24 14:25:00,56.0,30.0,29.78,NNE,22,11.0,14.0,38,0.00,,,0.00,TxWx,2013-10-24 18:25:00,
2013-10-24 14:30:00,56.0,29.0,29.77,ENE,67,13.0,13.0,37,0.00,,,0.00,TxWx,2013-10-24 18:30:00,
2013-10-24 14:36:00,56.0,29.0,29.78,NNE,22,12.0,14.0,37,0.00,,,0.00,TxWx,2013-10-24 18:36:00,
2013-10-24 14:41:00,56.0,30.0,29.78,NNW,337,10.0,10.0,38,0.00,,,0.00,TxWx,2013-10-24 18:41:00,
2013-10-24 14:46:00,56.0,29.0,29.78,NNW,337,12.0,13.0,37,0.00,,,0.00,TxWx,2013-10-24 18:46:00,
2013-10-24 14:51:00,56.0,29.0,29.78,NE,45,6.0,8.0,38,0.00,,,0.00,TxWx,2013-10-24 18:51:00,
2013-10-24 14:56:00,56.0,29.0,29.78,NE,45,7.0,7.0,37,0.00,,,0.00,TxWx,2013-10-24 18:56:00,
2013-10-24 15:00:00,44.0,31.0,29.90,WNW,292,1.0,1.0,63,0.00,,,0.00,TxWx,2013-10-24 19:00:00,
2013-10-24 15:01:00,55.0,28.0,29.78,ESE,112,6.0,7.0,37,0.00,,,0.00,TxWx,2013-10-24 19:01:00,
2013-10-24 15:02:00,44.0,31.0,29.91,ENE,67,1.0,1.0,63,0.00,,,0.00,TxWx,2013-10-24 19:02:00,
2013-10-24 15:03:00,44.0,31.0,29.91,ENE,67,1.0,1.0,63,0.00,,,0.00,TxWx,2013-10-24 19:03:00,
2013-10-24 15:04:00,44.0,32.0,29.91,ENE,67,1.0,1.0,63,0.00,,,0.00,TxWx,2013-10-24 19:04:00,
2013-10-24 15:05:00,44.0,32.0,29.91,NE,45,0.0,1.0,63,0.00,,,0.00,TxWx,2013-10-24 19:05:00,
2013-10-24 15:06:00,55.0,28.0,29.78,NNE,22,10.0,10.0,38,0.00,,,0.00,TxWx,2013-10-24 19:06:00,
2013-10-24 15:07:00,44.0,32.0,29.91,West,270,1.0,1.0,63,0.00,,,0.00,TxWx,2013-10-24 19:07:00,
2013-10-24 15:08:00,44.0,32.0,29.90,WSW,247,1.0,1.0,63,0.00,,,0.00,TxWx,2013-10-24 19:08:00,
2013-10-24 15:09:00,44.0,32.0,29.91,West,270,1.0,1.0,64,0.00,,,0.00,TxWx,2013-10-24 19:09:00,
2013-10-24 15:10:00,44.0,32.0,29.91,WNW,292,1.0,1.0,64,0.00,,,0.00,TxWx,2013-10-24 19:10:00,
2013-10-24 15:11:00,55.0,28.0,29.78,NE,45,8.0,11.0,37,0.00,,,0.00,TxWx,2013-10-24 19:11:00,
2013-10-24 15:12:00,44.0,32.0,29.91,WNW,292,0.0,0.0,64,0.00,,,0.00,TxWx,2013-10-24 19:12:00,
2013-10-24 15:13:00,44.0,32.0,29.91,WNW,292,0.0,0.0,64,0.00,,,0.00,TxWx,2013-10-24 19:13:00,
2013-10-24 15:14:00,44.0,32.0,29.91,WNW,292,0.0,1.0,64,0.00,,,0.00,TxWx,2013-10-24 19:14:00,
2013-10-24 15:15:00,44.0,32.0,29.91,WNW,292,0.0,1.0,64,0.00,,,0.00,TxWx,2013-10-24 19:15:00,
2013-10-24 15:16:00,55.0,28.0,29.78,NNE,22,4.0,5.0,38,0.00,,,0.00,TxWx,2013-10-24 19:16:00,
2013-10-24 15:17:00,44.0,32.0,29.91,WNW,292,0.0,0.0,64,0.00,,,0.00,TxWx,2013-10-24 19:17:00,
2013-10-24 15:18:00,44.0,32.0,29.91,WNW,292,1.0,1.0,64,0.00,,,0.00,TxWx,2013-10-24 19:18:00,
2013-10-24 15:19:00,44.0,32.0,29.91,WNW,292,0.0,1.0,64,0.00,,,0.00,TxWx,2013-10-24 19:19:00,
2013-10-24 15:20:00,44.0,32.0,29.91,WNW,292,0.0,0.0,64,0.00,,,0.00,TxWx,2013-10-24 19:20:00,
2013-10-24 15:21:00,55.0,29.0,29.78,North,0,5.0,10.0,38,0.00,,,0.00,TxWx,2013-10-24 19:21:00,
2013-10-24 15:22:00,44.0,33.0,29.91,ENE,67,1.0,1.0,64,0.00,,,0.00,TxWx,2013-10-24 19:22:00,
2013-10-24 15:23:00,44.0,33.0,29.91,ENE,67,1.0,1.0,64,0.00,,,0.00,TxWx,2013-10-24 19:23:00,
2013-10-24 15:24:00,44.0,33.0,29.91,ENE,67,1.0,1.0,64,0.00,,,0.00,TxWx,2013-10-24 19:24:00,
2013-10-24 15:26:00,44.0,33.0,29.91,WNW,292,0.0,1.0,65,0.00,,,0.00,TxWx,2013-10-24 19:26:00,
2013-10-24 15:27:00,55.0,28.0,29.78,NNE,22,4.0,4.0,38,0.00,,,0.00,TxWx,2013-10-24 19:27:00,
2013-10-24 15:28:00,44.0,33.0,29.91,West,270,1.0,2.0,65,0.00,,,0.00,TxWx,2013-10-24 19:28:00,
2013-10-24 15:29:00,44.0,33.0,29.91,NNW,337,1.0,1.0,65,0.00,,,0.00,TxWx,2013-10-24 19:29:00,
2013-10-24 15:32:00,55.0,28.0,29.78,SE,135,7.0,8.0,37,0.00,,,0.00,TxWx,2013-10-24 19:32:00,
2013-10-24 15:37:00,55.0,28.0,29.78,East,90,3.0,4.0,37,0.00,,,0.00,TxWx,2013-10-24 19:37:00,
2013-10-24 15:42:00,55.0,29.0,29.78,North,0,8.0,8.0,38,0.00,,,0.00,TxWx,2013-10-24 19:42:00,
2013-10-24 15:47:00,55.0,29.0,29.78,NNE,22,2.0,3.0,39,0.00,,,0.00,TxWx,2013-10-24 19:47:00,
2013-10-24 15:52:00,55.0,29.0,29.78,NE,45,6.0,8.0,39,0.00,,,0.00,TxWx,2013-10-24 19:52:00,
2013-10-24 15:57:00,55.0,29.0,29.78,NE,45,3.0,3.0,39,0.00,,,0.00,TxWx,2013-10-24 19:57:00,
2013-10-24 16:02:00,56.0,30.0,29.79,North,0,8.0,8.0,38,0.00,,,0.00,TxWx,2013-10-24 20:02:00,
2013-10-24 16:07:00,56.0,29.0,29.79,North,0,3.0,7.0,38,0.00,,,0.00,TxWx,2013-10-24 20:07:00,
2013-10-24 16:12:00,56.0,29.0,29.79,SE,135,5.0,5.0,37,0.00,,,0.00,TxWx,2013-10-24 20:12:00,
2013-10-24 16:17:00,56.0,29.0,29.79,East,90,4.0,5.0,37,0.00,,,0.00,TxWx,2013-10-24 20:17:00,
2013-10-24 16:22:00,56.0,29.0,29.79,NNW,337,5.0,6.0,37,0.00,,,0.00,TxWx,2013-10-24 20:22:00,
2013-10-24 16:28:00,56.0,28.0,29.79,North,0,6.0,10.0,36,0.00,,,0.00,TxWx,2013-10-24 20:28:00,
2013-10-24 16:33:00,56.0,29.0,29.79,NW,315,6.0,6.0,37,0.00,,,0.00,TxWx,2013-10-24 20:33:00,
2013-10-24 16:38:00,56.0,29.0,29.79,North,0,8.0,8.0,37,0.00,,,0.00,TxWx,2013-10-24 20:38:00,
2013-10-24 16:43:00,56.0,29.0,29.79,North,0,8.0,9.0,37,0.00,,,0.00,TxWx,2013-10-24 20:43:00,
2013-10-24 16:48:00,56.0,29.0,29.79,ENE,67,3.0,4.0,37,0.00,,,0.00,TxWx,2013-10-24 20:48:00,
2013-10-24 16:53:00,56.0,29.0,29.79,SE,135,3.0,5.0,37,0.00,,,0.00,TxWx,2013-10-24 20:53:00,
2013-10-24 16:58:00,56.0,29.0,29.80,ENE,67,5.0,6.0,37,0.00,,,0.00,TxWx,2013-10-24 20:58:00,
2013-10-24 17:03:00,56.0,29.0,29.80,East,90,6.0,6.0,37,0.00,,,0.00,TxWx,2013-10-24 21:03:00,
2013-10-24 17:08:00,56.0,29.0,29.80,East,90,4.0,5.0,37,0.00,,,0.00,TxWx,2013-10-24 21:08:00,
2013-10-24 17:13:00,56.0,29.0,29.80,North,0,6.0,6.0,37,0.00,,,0.00,TxWx,2013-10-24 21:13:00,
2013-10-24 17:19:00,55.0,28.0,29.80,NW,315,2.0,6.0,37,0.00,,,0.00,TxWx,2013-10-24 21:19:00,
2013-10-24 17:24:00,56.0,29.0,29.80,NE,45,2.0,5.0,37,0.00,,,0.00,TxWx,2013-10-24 21:24:00,
2013-10-24 17:29:00,56.0,29.0,29.80,NNE,22,9.0,10.0,37,0.00,,,0.00,TxWx,2013-10-24 21:29:00,
2013-10-24 17:34:00,55.0,28.0,29.81,North,0,5.0,5.0,37,0.00,,,0.00,TxWx,2013-10-24 21:34:00,
2013-10-24 17:39:00,55.0,28.0,29.81,NNW,337,8.0,9.0,38,0.00,,,0.00,TxWx,2013-10-24 21:39:00,
2013-10-24 17:44:00,55.0,28.0,29.81,NE,45,3.0,4.0,38,0.00,,,0.00,TxWx,2013-10-24 21:44:00,
2013-10-24 17:49:00,55.0,29.0,29.81,NNE,22,7.0,7.0,38,0.00,,,0.00,TxWx,2013-10-24 21:49:00,
2013-10-24 17:54:00,55.0,29.0,29.81,ENE,67,6.0,6.0,38,0.00,,,0.00,TxWx,2013-10-24 21:54:00,
2013-10-24 18:00:00,55.0,29.0,29.82,NE,45,3.0,4.0,39,0.00,,,0.00,TxWx,2013-10-24 22:00:00,
2013-10-24 18:05:00,54.0,29.0,29.82,NE,45,6.0,7.0,39,0.00,,,0.00,TxWx,2013-10-24 22:05:00,
2013-10-24 18:10:00,54.0,29.0,29.82,NE,45,6.0,7.0,39,0.00,,,0.00,TxWx,2013-10-24 22:10:00,
2013-10-24 18:16:00,54.0,29.0,29.83,North,0,6.0,6.0,39,0.00,,,0.00,TxWx,2013-10-24 22:16:00,
2013-10-24 18:21:00,54.0,29.0,29.83,NNE,22,4.0,6.0,40,0.00,,,0.00,TxWx,2013-10-24 22:21:00,
2013-10-24 18:26:00,54.0,29.0,29.83,NE,45,4.0,5.0,40,0.00,,,0.00,TxWx,2013-10-24 22:26:00,
2013-10-24 18:31:00,54.0,29.0,29.83,ENE,67,3.0,3.0,40,0.00,,,0.00,TxWx,2013-10-24 22:31:00,
2013-10-24 18:36:00,54.0,29.0,29.83,NE,45,2.0,2.0,40,0.00,,,0.00,TxWx,2013-10-24 22:36:00,
2013-10-24 18:41:00,54.0,29.0,29.84,ENE,67,4.0,4.0,41,0.00,,,0.00,TxWx,2013-10-24 22:41:00,
2013-10-24 18:46:00,54.0,29.0,29.84,NNE,22,8.0,11.0,40,0.00,,,0.00,TxWx,2013-10-24 22:46:00,
2013-10-24 18:51:00,54.0,29.0,29.84,NNE,22,11.0,11.0,40,0.00,,,0.00,TxWx,2013-10-24 22:51:00,
2013-10-24 18:56:00,54.0,29.0,29.84,NE,45,2.0,3.0,41,0.00,,,0.00,TxWx,2013-10-24 22:56:00,
2013-10-24 19:01:00,54.0,30.0,29.84,ENE,67,4.0,5.0,41,0.00,,,0.00,TxWx,2013-10-24 23:01:00,
2013-10-24 19:06:00,53.0,29.0,29.84,North,0,3.0,3.0,41,0.00,,,0.00,TxWx,2013-10-24 23:06:00,
2013-10-24 19:11:00,53.0,29.0,29.84,NNE,22,3.0,3.0,41,0.00,,,0.00,TxWx,2013-10-24 23:11:00,
2013-10-24 19:17:00,53.0,29.0,29.85,NNE,22,1.0,1.0,41,0.00,,,0.00,TxWx,2013-10-24 23:17:00,
2013-10-24 19:22:00,53.0,29.0,29.85,NNE,22,1.0,3.0,42,0.00,,,0.00,TxWx,2013-10-24 23:22:00,
2013-10-24 19:27:00,53.0,29.0,29.85,NNE,22,2.0,2.0,42,0.00,,,0.00,TxWx,2013-10-24 23:27:00,
2013-10-24 19:32:00,53.0,29.0,29.85,NNW,337,2.0,2.0,42,0.00,,,0.00,TxWx,2013-10-24 23:32:00,
2013-10-24 19:38:00,52.0,29.0,29.85,NNE,22,1.0,2.0,43,0.00,,,0.00,TxWx,2013-10-24 23:38:00,
2013-10-24 19:43:00,52.0,29.0,29.85,NE,45,3.0,4.0,44,0.00,,,0.00,TxWx,2013-10-24 23:43:00,
2013-10-24 19:48:00,52.0,30.0,29.85,North,0,3.0,3.0,44,0.00,,,0.00,TxWx,2013-10-24 23:48:00,
2013-10-24 19:53:00,51.0,29.0,29.85,NW,315,3.0,3.0,45,0.00,,,0.00,TxWx,2013-10-24 23:53:00,
2013-10-24 19:58:00,51.0,29.0,29.86,NNE,22,4.0,4.0,45,0.00,,,0.00,TxWx,2013-10-24 23:58:00,
2013-10-24 20:03:00,51.0,29.0,29.85,North,0,3.0,3.0,45,0.00,,,0.00,TxWx,2013-10-25 00:03:00,
2013-10-24 20:08:00,51.0,29.0,29.86,North,0,4.0,4.0,45,0.00,,,0.00,TxWx,2013-10-25 00:08:00,
2013-10-24 20:14:00,51.0,29.0,29.86,North,0,2.0,2.0,45,0.00,,,0.00,TxWx,2013-10-25 00:14:00,
2013-10-24 20:19:00,51.0,29.0,29.86,NNW,337,5.0,6.0,45,0.00,,,0.00,TxWx,2013-10-25 00:19:00,
2013-10-24 20:24:00,51.0,30.0,29.86,NNW,337,2.0,3.0,46,0.00,,,0.00,TxWx,2013-10-25 00:24:00,
2013-10-24 20:29:00,51.0,30.0,29.86,NNW,337,1.0,2.0,46,0.00,,,0.00,TxWx,2013-10-25 00:29:00,
2013-10-24 20:34:00,51.0,30.0,29.86,NW,315,4.0,4.0,46,0.00,,,0.00,TxWx,2013-10-25 00:34:00,
2013-10-24 20:39:00,51.0,30.0,29.86,NW,315,2.0,2.0,46,0.00,,,0.00,TxWx,2013-10-25 00:39:00,
2013-10-24 20:44:00,50.0,29.0,29.86,North,0,1.0,1.0,47,0.00,,,0.00,TxWx,2013-10-25 00:44:00,
2013-10-24 20:49:00,50.0,30.0,29.86,North,0,2.0,2.0,47,0.00,,,0.00,TxWx,2013-10-25 00:49:00,
2013-10-24 20:54:00,49.0,29.0,29.86,ENE,67,3.0,3.0,48,0.00,,,0.00,TxWx,2013-10-25 00:54:00,
2013-10-24 20:59:00,50.0,30.0,29.86,NNW,337,3.0,3.0,48,0.00,,,0.00,TxWx,2013-10-25 00:59:00,
2013-10-24 21:04:00,50.0,30.0,29.87,NNE,22,2.0,2.0,48,0.00,,,0.00,TxWx,2013-10-25 01:04:00,
2013-10-24 21:10:00,50.0,30.0,29.87,WSW,247,2.0,3.0,48,0.00,,,0.00,TxWx,2013-10-25 01:10:00,
2013-10-24 21:15:00,49.0,30.0,29.87,NNW,337,1.0,1.0,49,0.00,,,0.00,TxWx,2013-10-25 01:15:00,
2013-10-24 21:20:00,48.0,29.0,29.87,NNE,22,3.0,3.0,50,0.00,,,0.00,TxWx,2013-10-25 01:20:00,
2013-10-24 21:25:00,49.0,30.0,29.87,North,0,4.0,4.0,50,0.00,,,0.00,TxWx,2013-10-25 01:25:00,
2013-10-24 21:30:00,49.0,30.0,29.87,North,0,2.0,3.0,49,0.00,,,0.00,TxWx,2013-10-25 01:30:00,
2013-10-24 21:35:00,49.0,30.0,29.87,ENE,67,2.0,3.0,49,0.00,,,0.00,TxWx,2013-10-25 01:35:00,
2013-10-24 21:40:00,49.0,30.0,29.87,NNE,22,3.0,3.0,50,0.00,,,0.00,TxWx,2013-10-25 01:40:00,
2013-10-24 21:46:00,49.0,30.0,29.87,NNW,337,2.0,3.0,50,0.00,,,0.00,TxWx,2013-10-25 01:46:00,
2013-10-24 21:51:00,49.0,30.0,29.88,North,0,3.0,3.0,49,0.00,,,0.00,TxWx,2013-10-25 01:51:00,
2013-10-24 21:56:00,49.0,30.0,29.88,NNE,22,3.0,4.0,50,0.00,,,0.00,TxWx,2013-10-25 01:56:00,
2013-10-24 22:01:00,49.0,30.0,29.88,NNE,22,3.0,3.0,50,0.00,,,0.00,TxWx,2013-10-25 02:01:00,
2013-10-24 22:06:00,49.0,30.0,29.88,North,0,2.0,2.0,50,0.00,,,0.00,TxWx,2013-10-25 02:06:00,
2013-10-24 22:11:00,49.0,30.0,29.88,North,0,2.0,3.0,50,0.00,,,0.00,TxWx,2013-10-25 02:11:00,
2013-10-24 22:16:00,49.0,30.0,29.88,NE,45,2.0,3.0,50,0.00,,,0.00,TxWx,2013-10-25 02:16:00,
2013-10-24 22:22:00,48.0,29.0,29.88,NNE,22,2.0,2.0,51,0.00,,,0.00,TxWx,2013-10-25 02:22:00,
2013-10-24 22:27:00,48.0,30.0,29.88,North,0,1.0,1.0,51,0.00,,,0.00,TxWx,2013-10-25 02:27:00,
2013-10-24 22:32:00,47.0,29.0,29.89,NNE,22,2.0,3.0,52,0.00,,,0.00,TxWx,2013-10-25 02:32:00,
2013-10-24 22:37:00,48.0,30.0,29.89,West,270,1.0,1.0,53,0.00,,,0.00,TxWx,2013-10-25 02:37:00,
2013-10-24 22:42:00,48.0,31.0,29.88,NNW,337,1.0,2.0,53,0.00,,,0.00,TxWx,2013-10-25 02:42:00,
2013-10-24 22:47:00,48.0,31.0,29.89,NNE,22,2.0,2.0,53,0.00,,,0.00,TxWx,2013-10-25 02:47:00,
2013-10-24 22:52:00,47.0,30.0,29.89,NW,315,1.0,1.0,54,0.00,,,0.00,TxWx,2013-10-25 02:52:00,
2013-10-24 22:58:00,46.0,30.0,29.89,South,180,4.0,5.0,57,0.00,,,0.00,TxWx,2013-10-25 02:58:00,
2013-10-24 23:03:00,45.0,30.0,29.89,SSE,157,1.0,2.0,58,0.00,,,0.00,TxWx,2013-10-25 03:03:00,
2013-10-24 23:08:00,45.0,30.0,29.89,South,180,1.0,1.0,58,0.00,,,0.00,TxWx,2013-10-25 03:08:00,
2013-10-24 23:13:00,45.0,30.0,29.89,NE,45,0.0,1.0,59,0.00,,,0.00,TxWx,2013-10-25 03:13:00,
2013-10-24 23:18:00,45.0,31.0,29.89,SSW,202,1.0,2.0,59,0.00,,,0.00,TxWx,2013-10-25 03:18:00,
2013-10-24 23:23:00,45.0,31.0,29.90,ENE,67,1.0,1.0,60,0.00,,,0.00,TxWx,2013-10-25 03:23:00,
2013-10-24 23:28:00,45.0,32.0,29.90,NW,315,3.0,3.0,61,0.00,,,0.00,TxWx,2013-10-25 03:28:00,
2013-10-24 23:34:00,44.0,30.0,29.90,NNW,337,0.0,0.0,61,0.00,,,0.00,TxWx,2013-10-25 03:34:00,
2013-10-24 23:39:00,44.0,31.0,29.90,West,270,0.0,1.0,62,0.00,,,0.00,TxWx,2013-10-25 03:39:00,
2013-10-24 23:44:00,44.0,31.0,29.90,West,270,1.0,1.0,62,0.00,,,0.00,TxWx,2013-10-25 03:44:00,
2013-10-24 23:49:00,44.0,31.0,29.90,South,180,1.0,1.0,62,0.00,,,0.00,TxWx,2013-10-25 03:49:00,
2013-10-24 23:54:00,44.0,31.0,29.90,West,270,2.0,3.0,63,0.00,,,0.00,TxWx,2013-10-25 03:54:00,
2013-10-24 23:59:00,44.0,31.0,29.91,WNW,292,1.0,1.0,63,0.00,,,0.00,TxWx,2013-10-25 03:59:00,